{"data":{"norad_id":64169,"epoch":"2026-05-25T02:38:09.510720Z","epoch_age_seconds":69481,"freshness":"FRESH","line1":"1 64169U 25112Z   26145.10983230  .00005267  00000+0  36868-3 0  9994","line2":"2 64169  97.4513 196.4259 0002400 134.6564 225.4859 15.05661965 54804","mean_motion":15.05661965,"eccentricity":0.00024,"inclination_deg":97.4513,"raan_deg":196.4259,"arg_perigee_deg":134.6564,"mean_anomaly_deg":225.4859,"bstar":0.00036868,"rev_number":5480,"period_min":95.638996897952,"perigee_km":547.8118260822,"apogee_km":551.13707957956,"semimajor_km":6927.6114528309,"source":"CELESTRAK","updated_at":"2026-05-25T13:38:20.308243Z"}}